Location: Newark
(46.2358°N, 112.1211°W)
Time: 20:36:55
(UTC+00:00)

ISS - Visible Passes

Search period start: 24 July 2021 00:00
Search period end: 03 August 2021 00:00
Orbit: 419 x 421 km, 51.6° (Epoch: 24 July)

Date Brightness Start Highest point End Pass type
(mag) Time Alt. Az. Time Alt. Az. Time Alt. Az.
24 Jul -2.3 04:50:20 10° WNW 04:53:30 36° N 04:56:26 11° E visible
24 Jul -2.6 06:27:09 10° WNW 06:29:22 37° WNW 06:29:22 37° WNW visible
25 Jul -2.1 04:02:58 10° WNW 04:06:04 32° N 04:09:10 10° ENE visible
25 Jul -3.8 05:39:50 10° WNW 05:43:13 78° NNE 05:43:31 70° E visible
26 Jul -3.2 04:52:32 10° WNW 04:55:52 56° NNE 04:57:41 24° E visible
26 Jul -1.4 06:29:34 10° WNW 06:30:38 17° W 06:30:38 17° W visible
27 Jul -2.8 04:05:12 10° WNW 04:08:28 43° NNE 04:11:43 10° E visible
27 Jul -3.0 05:42:05 10° WNW 05:44:50 41° WSW 05:44:50 41° WSW visible
28 Jul -3.8 04:54:40 10° WNW 04:58:03 71° SSW 04:59:05 40° SE visible
29 Jul -3.7 04:07:19 10° WNW 04:10:43 79° NNE 04:13:21 16° ESE visible
29 Jul -1.5 05:44:45 10° W 05:46:18 17° WSW 05:46:18 17° WSW visible
30 Jul -2.5 04:57:02 10° W 05:00:00 29° SW 05:00:37 27° SSW visible
31 Jul -3.1 04:09:31 10° WNW 04:12:45 44° SW 04:14:59 18° SSE visible
01 Aug -1.2 05:00:29 10° WSW 05:01:43 12° SW 05:02:21 11° SW visible
02 Aug -1.6 04:12:09 10° W 04:14:34 18° SW 04:16:49 11° S visible
